Location: Garbet
(42.8837°N, 1.2115°E)
Time: 07:35:28
(UTC+00:00)

Cosmos 1953 Rocket - Pass Details

Date: 17 March 2026
Orbit: 599 x 626 km, 82.5° (Epoch: 18 April)

Event Time Altitude Azimuth Distance (km) Brightness Sun altitude
Rises 19:59:43 0° 235° (SW) 2,836 7.5 -21.7°
Reaches altitude 10° 20:03:03 10° 264° (W) 1,942 7.0 -22.2°
Maximum altitude 20:05:05 13° 292° (WNW) 1,750 6.9 -22.6°
Drops below altitude 10° 20:07:08 10° 321° (NW) 1,952 6.9 -22.9°
Sets 20:10:31 0° 349° (N) 2,867 7.4 -23.5°
